OHFUK LSGS-LIMB

Flight info

Callsign OHFUK
Flight time 0h 45m
Altitude 18000
Route ROCCA DCT SRN
Aircraft PC12/L-SDFGRWY/S

Departure

Time 2026-05-08 14:37
Airport Sion Airport (LSGS)

Arrival

Time 2026-05-08 15:22
Airport Milano-Bresso Airfield (LIMB)
Time Latitude Longitude Altitude Speed Heading
2026-05-08 14:24 46.21992 7.33543 1584 ft 0 kts 160°
2026-05-08 14:33 46.21983 7.33557 1584 ft 4 kts 90°
2026-05-08 14:33 46.21998 7.33620 1584 ft 12 kts 73°
2026-05-08 14:33 46.22066 7.33712 1584 ft 15 kts 66°
2026-05-08 14:34 46.22100 7.33871 1584 ft 18 kts 72°
2026-05-08 14:34 46.22118 7.33944 1584 ft 0 kts 57°
2026-05-08 14:35 46.22136 7.33957 1584 ft 7 kts 359°
2026-05-08 14:35 46.22193 7.33932 1584 ft 7 kts 315°
2026-05-08 14:36 46.22194 7.33912 1584 ft 0 kts 249°
2026-05-08 14:36 46.22193 7.33911 1584 ft 3 kts 249°
2026-05-08 14:36 46.22125 7.33592 1584 ft 64 kts 253°
2026-05-08 14:36 46.21944 7.32780 1757 ft 95 kts 251°
2026-05-08 14:37 46.21727 7.31831 2269 ft 102 kts 255°
2026-05-08 14:37 46.21445 7.30861 2799 ft 109 kts 244°
2026-05-08 14:37 46.21088 7.29887 3445 ft 108 kts 244°
2026-05-08 14:37 46.20713 7.28903 3921 ft 125 kts 244°
2026-05-08 14:38 46.20248 7.27628 4209 ft 161 kts 245°
2026-05-08 14:38 46.19716 7.26123 4789 ft 170 kts 244°
2026-05-08 14:38 46.19172 7.24622 5532 ft 166 kts 241°
2026-05-08 14:38 46.18570 7.23171 6227 ft 174 kts 234°
2026-05-08 14:39 46.17841 7.21753 6927 ft 175 kts 236°
2026-05-08 14:39 46.17135 7.20306 7590 ft 179 kts 236°
2026-05-08 14:39 46.16420 7.18823 8285 ft 179 kts 235°
2026-05-08 14:39 46.15711 7.17332 8977 ft 181 kts 236°
2026-05-08 14:40 46.14992 7.15804 9583 ft 188 kts 235°
2026-05-08 14:40 46.14221 7.14241 10106 ft 195 kts 234°
2026-05-08 14:40 46.13435 7.12621 10552 ft 202 kts 234°
2026-05-08 14:40 46.12612 7.10948 11026 ft 207 kts 233°
2026-05-08 14:41 46.11789 7.09253 11572 ft 206 kts 235°
2026-05-08 14:41 46.10986 7.07542 12142 ft 206 kts 235°
2026-05-08 14:41 46.10158 7.05827 12586 ft 211 kts 234°
2026-05-08 14:41 46.09313 7.04093 12985 ft 212 kts 234°
2026-05-08 14:42 46.08444 7.02308 13212 ft 219 kts 234°
2026-05-08 14:42 46.07573 7.00517 13618 ft 218 kts 234°
2026-05-08 14:42 46.06717 6.98760 13990 ft 218 kts 234°
2026-05-08 14:42 46.05846 6.96973 14351 ft 216 kts 234°
2026-05-08 14:43 46.04975 6.95222 14740 ft 214 kts 234°
2026-05-08 14:43 46.04125 6.93477 15048 ft 216 kts 235°
2026-05-08 14:43 46.03263 6.91685 15314 ft 218 kts 235°
2026-05-08 14:43 46.02392 6.89896 15642 ft 219 kts 235°
2026-05-08 14:44 46.01507 6.88089 15912 ft 221 kts 235°
2026-05-08 14:44 46.00620 6.86277 16241 ft 221 kts 235°
2026-05-08 14:44 45.99735 6.84469 16575 ft 222 kts 235°
2026-05-08 14:44 45.98841 6.82643 16875 ft 223 kts 235°
2026-05-08 14:45 45.97942 6.80809 17198 ft 223 kts 236°
2026-05-08 14:45 45.97044 6.78979 17534 ft 225 kts 236°
2026-05-08 14:45 45.96136 6.77129 17846 ft 226 kts 236°
2026-05-08 14:45 45.95221 6.75266 18001 ft 233 kts 236°
2026-05-08 14:46 45.94264 6.73315 18015 ft 245 kts 236°
2026-05-08 14:46 45.93226 6.71333 18015 ft 249 kts 226°
2026-05-08 14:46 45.91806 6.69989 18018 ft 246 kts 203°
2026-05-08 14:46 45.90143 6.69371 18023 ft 249 kts 194°
2026-05-08 14:47 45.88437 6.68863 18027 ft 252 kts 193°
2026-05-08 14:47 45.86714 6.68340 18026 ft 254 kts 194°
2026-05-08 14:47 45.84979 6.67799 18026 ft 256 kts 194°
2026-05-08 14:47 45.83259 6.67262 18025 ft 257 kts 194°
2026-05-08 14:48 45.81504 6.66718 18027 ft 258 kts 194°
2026-05-08 14:48 45.79740 6.66175 18028 ft 258 kts 193°
2026-05-08 14:48 45.77944 6.66109 18028 ft 262 kts 172°
2026-05-08 14:48 45.76251 6.67101 18026 ft 267 kts 148°
2026-05-08 14:49 45.74963 6.69016 18029 ft 271 kts 123°
2026-05-08 14:49 45.74328 6.71546 18030 ft 272 kts 98°
2026-05-08 14:49 45.74199 6.74241 18029 ft 272 kts 93°
2026-05-08 14:49 45.74131 6.76948 18038 ft 272 kts 93°
2026-05-08 14:50 45.74054 6.79656 18038 ft 273 kts 94°
2026-05-08 14:50 45.73961 6.82377 18035 ft 273 kts 94°
2026-05-08 14:50 45.73867 6.85096 18036 ft 274 kts 94°
2026-05-08 14:50 45.73776 6.87818 18033 ft 274 kts 93°
2026-05-08 14:51 45.73687 6.90502 18032 ft 275 kts 94°
2026-05-08 14:51 45.73595 6.93229 18036 ft 275 kts 94°
2026-05-08 14:51 45.73502 6.95957 18037 ft 274 kts 94°
2026-05-08 14:51 45.73407 6.98693 18037 ft 275 kts 94°
2026-05-08 14:52 45.73313 7.01427 18039 ft 275 kts 94°
2026-05-08 14:52 45.73123 7.06889 18036 ft 276 kts 94°
2026-05-08 14:52 45.73027 7.09638 18029 ft 277 kts 94°
2026-05-08 14:53 45.72930 7.12397 18031 ft 277 kts 94°
2026-05-08 14:53 45.72829 7.15160 18026 ft 278 kts 94°
2026-05-08 14:53 45.72729 7.17915 18023 ft 277 kts 94°
2026-05-08 14:53 45.72664 7.19744 18021 ft 277 kts 94°
2026-05-08 14:54 45.72598 7.21564 18020 ft 277 kts 94°
2026-05-08 14:54 45.72431 7.26143 18017 ft 277 kts 94°
2026-05-08 14:54 45.72243 7.31232 18017 ft 276 kts 94°
2026-05-08 14:55 45.72141 7.33975 18017 ft 276 kts 94°
2026-05-08 14:55 45.72038 7.36719 18016 ft 275 kts 94°
2026-05-08 14:55 45.71934 7.39450 18017 ft 275 kts 94°
2026-05-08 14:55 45.71829 7.42192 18017 ft 275 kts 94°
2026-05-08 14:56 45.71724 7.44933 18015 ft 275 kts 94°
2026-05-08 14:56 45.71621 7.47633 18013 ft 275 kts 94°
2026-05-08 14:56 45.71515 7.50359 18071 ft 275 kts 94°
2026-05-08 14:56 45.71408 7.53089 18071 ft 275 kts 94°
2026-05-08 14:57 45.71301 7.55827 18075 ft 275 kts 94°
2026-05-08 14:57 45.71192 7.58571 18074 ft 275 kts 94°
2026-05-08 14:57 45.71084 7.61307 18074 ft 274 kts 94°
2026-05-08 14:57 45.70975 7.64029 18072 ft 274 kts 94°
2026-05-08 14:58 45.70866 7.66741 18067 ft 272 kts 94°
2026-05-08 14:58 45.70756 7.69443 18071 ft 273 kts 94°
2026-05-08 14:58 45.70646 7.72158 18070 ft 273 kts 94°
2026-05-08 14:58 45.70572 7.73960 18069 ft 273 kts 94°
2026-05-08 14:59 45.70072 7.86015 18061 ft 273 kts 94°
2026-05-08 15:00 45.69958 7.88716 18066 ft 273 kts 94°
2026-05-08 15:00 45.69842 7.91444 18063 ft 274 kts 94°
2026-05-08 15:00 45.69726 7.94166 18063 ft 274 kts 94°
2026-05-08 15:00 45.69610 7.96890 18064 ft 275 kts 94°
2026-05-08 15:01 45.69493 7.99590 18068 ft 275 kts 94°
2026-05-08 15:01 45.69374 8.02326 18061 ft 276 kts 94°
2026-05-08 15:01 45.69255 8.05058 17879 ft 276 kts 94°
2026-05-08 15:01 45.69134 8.07802 17476 ft 276 kts 94°
2026-05-08 15:02 45.69013 8.10547 17082 ft 276 kts 94°
2026-05-08 15:02 45.68893 8.13276 16692 ft 274 kts 94°
2026-05-08 15:02 45.68772 8.15989 16307 ft 272 kts 95°
2026-05-08 15:02 45.68652 8.18674 15923 ft 270 kts 95°
2026-05-08 15:03 45.68530 8.21353 15548 ft 269 kts 94°
2026-05-08 15:03 45.68410 8.24015 15177 ft 267 kts 94°
2026-05-08 15:03 45.68292 8.26631 14693 ft 263 kts 94°
2026-05-08 15:03 45.68172 8.29244 14156 ft 262 kts 94°
2026-05-08 15:04 45.68054 8.31799 13631 ft 260 kts 94°
2026-05-08 15:04 45.67936 8.34372 13092 ft 257 kts 94°
2026-05-08 15:04 45.68010 8.36903 12519 ft 255 kts 82°
2026-05-08 15:04 45.68395 8.39366 11969 ft 253 kts 70°
2026-05-08 15:05 45.69163 8.41611 11448 ft 251 kts 60°
2026-05-08 15:05 45.70055 8.43740 10983 ft 248 kts 58°
2026-05-08 15:05 45.70960 8.45835 10505 ft 247 kts 58°
2026-05-08 15:05 45.71864 8.47914 10055 ft 244 kts 58°
2026-05-08 15:06 45.72756 8.49959 9580 ft 241 kts 58°
2026-05-08 15:06 45.73643 8.51987 9070 ft 240 kts 58°
2026-05-08 15:06 45.74536 8.54018 8654 ft 239 kts 58°
2026-05-08 15:06 45.75416 8.56017 8273 ft 236 kts 58°
2026-05-08 15:07 45.76292 8.58004 7857 ft 235 kts 58°
2026-05-08 15:07 45.77021 8.60072 7358 ft 234 kts 77°
2026-05-08 15:07 45.77134 8.62374 6968 ft 230 kts 91°
2026-05-08 15:07 45.77092 8.64651 6610 ft 229 kts 93°
2026-05-08 15:08 45.77036 8.66919 6285 ft 227 kts 93°
2026-05-08 15:08 45.76998 8.68412 6065 ft 226 kts 93°
2026-05-08 15:08 45.76918 8.71374 5623 ft 222 kts 93°
2026-05-08 15:08 45.76856 8.73579 5305 ft 219 kts 93°
2026-05-08 15:09 45.76790 8.75734 5053 ft 214 kts 93°
2026-05-08 15:09 45.76727 8.77841 4805 ft 209 kts 93°
2026-05-08 15:09 45.76665 8.79907 4548 ft 205 kts 94°
2026-05-08 15:09 45.76601 8.81941 4292 ft 203 kts 93°
2026-05-08 15:10 45.76532 8.83946 4035 ft 201 kts 93°
2026-05-08 15:10 45.76487 8.85253 4005 ft 193 kts 93°
2026-05-08 15:10 45.76422 8.87119 4002 ft 182 kts 93°
2026-05-08 15:10 45.76361 8.88892 3999 ft 174 kts 93°
2026-05-08 15:11 45.76301 8.90617 3999 ft 173 kts 93°
2026-05-08 15:11 45.76231 8.92324 3996 ft 169 kts 98°
2026-05-08 15:11 45.75588 8.93652 3997 ft 167 kts 150°
2026-05-08 15:11 45.74547 8.94355 3989 ft 164 kts 155°
2026-05-08 15:12 45.73513 8.95043 3769 ft 165 kts 153°
2026-05-08 15:12 45.72495 8.95807 3554 ft 164 kts 151°
2026-05-08 15:12 45.71494 8.96608 3255 ft 165 kts 150°
2026-05-08 15:12 45.70507 8.97405 2987 ft 165 kts 150°
2026-05-08 15:13 45.69507 8.98211 2734 ft 164 kts 150°
2026-05-08 15:13 45.68512 8.99012 2475 ft 164 kts 150°
2026-05-08 15:13 45.67519 8.99811 2212 ft 164 kts 150°
2026-05-08 15:13 45.66514 9.00620 2007 ft 169 kts 150°
2026-05-08 15:14 45.65497 9.01442 2008 ft 166 kts 150°
2026-05-08 15:14 45.64447 9.02025 2044 ft 162 kts 176°
2026-05-08 15:14 45.63310 9.01887 1987 ft 165 kts 187°
2026-05-08 15:14 45.62175 9.01711 1990 ft 164 kts 186°
2026-05-08 15:15 45.61044 9.01561 1998 ft 163 kts 184°
2026-05-08 15:15 45.59898 9.01423 1952 ft 168 kts 184°
2026-05-08 15:15 45.58713 9.01480 1868 ft 173 kts 167°
2026-05-08 15:15 45.57645 9.02187 1851 ft 171 kts 142°
2026-05-08 15:16 45.56752 9.03277 1845 ft 167 kts 137°
2026-05-08 15:16 45.55879 9.04367 1785 ft 168 kts 140°
2026-05-08 15:16 45.54876 9.05205 1765 ft 166 kts 157°
2026-05-08 15:16 45.53803 9.05735 1830 ft 161 kts 167°
2026-05-08 15:17 45.52704 9.05957 1858 ft 160 kts 168°
2026-05-08 15:17 45.51764 9.06677 1955 ft 153 kts 127°
2026-05-08 15:17 45.51537 9.08093 2004 ft 149 kts 86°
2026-05-08 15:17 45.51622 9.09576 2002 ft 149 kts 89°
2026-05-08 15:18 45.51382 9.11016 1992 ft 149 kts 111°
2026-05-08 15:18 45.51027 9.12370 1999 ft 142 kts 109°
2026-05-08 15:18 45.50694 9.13684 1972 ft 140 kts 109°
2026-05-08 15:18 45.50491 9.15061 1837 ft 142 kts 86°
2026-05-08 15:19 45.50854 9.16325 1688 ft 142 kts 50°
2026-05-08 15:19 45.51514 9.17362 1558 ft 138 kts 46°
2026-05-08 15:19 45.52244 9.18143 1542 ft 129 kts 19°
2026-05-08 15:19 45.53110 9.18146 1532 ft 121 kts 353°
2026-05-08 15:20 45.53907 9.17945 1583 ft 116 kts 348°
2026-05-08 15:20 45.54689 9.17764 1636 ft 105 kts 351°
2026-05-08 15:20 45.55395 9.17634 1607 ft 102 kts
2026-05-08 15:20 45.56004 9.18129 1463 ft 105 kts 53°
2026-05-08 15:21 45.56232 9.19087 1298 ft 102 kts 87°
2026-05-08 15:21 45.56129 9.19991 1115 ft 94 kts 127°
2026-05-08 15:21 45.55493 9.20216 895 ft 95 kts 177°
2026-05-08 15:21 45.54872 9.20226 628 ft 90 kts 176°
2026-05-08 15:22 45.54263 9.20232 473 ft 76 kts 176°
2026-05-08 15:22 45.53848 9.20235 471 ft 34 kts 180°
2026-05-08 15:22 45.53638 9.20237 471 ft 26 kts 180°
2026-05-08 15:22 45.53521 9.20215 469 ft 12 kts 253°
2026-05-08 15:23 45.53559 9.20091 465 ft 13 kts 298°
2026-05-08 15:23 45.53607 9.19992 465 ft 14 kts 343°
2026-05-08 15:23 45.53688 9.19984 465 ft 8 kts 356°
2026-05-08 15:23 45.53749 9.19957 465 ft 10 kts 356°
2026-05-08 15:24 45.53794 9.19978 465 ft 2 kts 282°
2026-05-08 15:24 45.53794 9.19976 465 ft 0 kts 268°
2026-05-08 15:24 45.53794 9.19981 465 ft 2 kts 265°
2026-05-08 15:24 45.53794 9.19983 465 ft 0 kts 267°